Showing default

KUIPER-00459, 68872

Orbit data source: Space-Track

KUIPER-00459, 68872 is an American payload satellite in LEO that was launched on Tue, 28 Apr 2026 UTC launched from the Air Force Eastern Test Range (AFETR). Payload-class satellites include a variety of spacecraft equipped with specific instruments for various scientific and technological missions. These include communications satellites like Starlink; space stations such as the ISS; scientific satellites like the Hubble; Earth observation satellites from companies like Planet Labs, Umbra, and HawkEye 360; GPS; miniature CubeSats for education and research; and military/defense satellites.

Loading next visibility...
Identifier
68872, 2026-095J
Orbit
LEO
Country
Flag of USUS
Related business
None
Manufacturer
Unknown
Mission
Operational spacecraft
Bus & Motor
Unknown
Mass
Unknown
Launch date (UTC)
2026-04-28 (4 days ago)
Launch vehicle
Unknown
Launch site
Air Force Eastern Test Range (AFETR)
Object type
Payload
Rocket body
Debris
Shape & HBR
Unknown
Radar Cross Section
RCS unknown

Expand to show TLE details & history
Last TLE update: 7 hours ago

TLE from 7 hours ago
0 KUIPER-00459
1 68872U 26095J   26122.16670139 -.00000694  00000-0 -85124-5 0  9995
2 68872  51.8701 104.9539 0011092 130.6632  53.2390 15.35912576  1311
Epoch: 2026-05-02T04:00Z
TLE epoch observation values (Epoch: 2026-05-02T04:00:03.000Z)
Latitude
-3.24585°
Longitude
7.39012°
Altitude
454.919 km
Speed
7.643 km/s
True Right ascension
19h 09m 57s
True Declination
-3° 13' 32"
Sunlit
Object was in full shadow at epoch
Visualization orbit readout
Latitude
Unknown
Longitude
Unknown
Altitude
Unknown
Speed
Unknown
Apparent Right ascension
Unknown
Apparent Declination
Unknown
Sunlit
N/A
Visualization observer readout
Local Sidereal Time
18:37:13
Azimuth
Unknown
Elevation
Unknown
Doppler factor
Unknown
Orbital elements
Apogee altitude
466.262 km
Perigee altitude
451.095 km
Semi-major axis
6,836.815 km
Eccentricity
0.00111
Inclination
51.8701°
RAAN
104.9539°
Arg. of periapsis
130.6632°
True anomaly
53.34091°
Mean anomaly
53.239°
Eccentric anomaly
53.28995°
Mean motion
3.83939 °/min
Orbital period
93.76 mins
BSTAR
-0.0000085124
Loading maneuver chart data...
Computing Atmospheric mass density...
Loading historical data...
Loading historical data...
Loading historical data...
Loading historical data...
Loading historical data...
Loading historical data...
Loading historical data...

Documentation

Showing up to 5 results
|